This is the latest recevied weather packets stored in our database for station/object SP1BMW-13. If no packets are shown the sender has not sent any weather packets the latest 10 day(s).
| Time | Temp. | Humidity | Pressure | Rain* | Wind** | Luminosity | Snow |
|---|---|---|---|---|---|---|---|
| 1788113078 | 21.67° C | 60% | 1009.8 hPa | 0 mm | 0 m/s | 1 W/m² | - |
| 1788113018 | 22.22° C | 60% | 1009.8 hPa | 0 mm | 0 m/s | 2 W/m² | - |
| 1788112958 | 22.22° C | 59% | 1009.8 hPa | 0 mm | 0 m/s | 2 W/m² | - |
| 1788112897 | 22.22° C | 59% | 1009.5 hPa | 0 mm | 0.45 m/s, 284° | 2 W/m² | - |
| 1788112838 | 22.22° C | 59% | 1009.5 hPa | 0 mm | 0 m/s | 2 W/m² | - |
| 1788112777 | 22.22° C | 59% | 1009.7 hPa | 0 mm | 0.89 m/s, 297° | 2 W/m² | - |
| 1788112718 | 22.22° C | 59% | 1009.6 hPa | 0 mm | 1.34 m/s, 277° | 2 W/m² | - |
| 1788112658 | 22.22° C | 59% | 1009.8 hPa | 0 mm | 0 m/s | 3 W/m² | - |
| 1788112598 | 22.22° C | 59% | 1009.5 hPa | 0 mm | 0.89 m/s, 273° | 3 W/m² | - |
| 1788112538 | 22.22° C | 59% | 1009.6 hPa | 0 mm | 0.45 m/s, 279° | 3 W/m² | - |
| 1788112478 | 22.22° C | 59% | 1009.8 hPa | 0 mm | 0 m/s | 3 W/m² | - |
| 1788112418 | 22.22° C | 59% | 1009.6 hPa | 0 mm | 0 m/s | 4 W/m² | - |
| 1788112358 | 22.22° C | 59% | 1009.8 hPa | 0 mm | 0.45 m/s, 323° | 4 W/m² | - |
| 1788112298 | 22.22° C | 58% | 1009.7 hPa | 0 mm | 0.45 m/s, 320° | 5 W/m² | - |
| 1788112238 | 22.22° C | 58% | 1009.5 hPa | 0 mm | 0.89 m/s, 227° | 5 W/m² | - |
| 1788112178 | 22.22° C | 58% | 1009.7 hPa | 0 mm | 0.89 m/s, 164° | 5 W/m² | - |
| 1788112119 | 22.22° C | 58% | 1009.5 hPa | 0 mm | 0.89 m/s, 303° | 6 W/m² | - |
| 1788112058 | 22.22° C | 58% | 1009.7 hPa | 0 mm | 0.45 m/s, 300° | 7 W/m² | - |
| 1788111998 | 22.22° C | 58% | 1009.5 hPa | 0 mm | 0.45 m/s, 305° | 7 W/m² | - |
| 1788111937 | 22.22° C | 58% | 1009.6 hPa | 0 mm | 0.45 m/s, 6° | 7 W/m² | - |
| 1788111878 | 22.22° C | 57% | 1009.5 hPa | 0 mm | 0.89 m/s, 215° | 8 W/m² | - |
| 1788111818 | 22.22° C | 57% | 1009.6 hPa | 0 mm | 1.34 m/s, 304° | 9 W/m² | - |
| 1788111758 | 22.22° C | 57% | 1009.6 hPa | 0 mm | 1.34 m/s, 294° | 9 W/m² | - |
| 1788111698 | 22.22° C | 57% | 1009.6 hPa | 0 mm | 1.79 m/s, 222° | 9 W/m² | - |
| 1788111637 | 22.22° C | 57% | 1009.5 hPa | 0 mm | 1.34 m/s, 0° | 10 W/m² | - |
* Rain latest hour (hover to see other rain measurements)
** Current wind speed in m/s (hover to see current wind gust speed)